Time,TemperatureF,DewpointF,PressureIn,WindDirection,WindDirectionDegrees,WindSpeedMPH,WindSpeedGustMPH,Humidity,HourlyPrecipIn,Conditions,Clouds,dailyrainin,SolarRadiationWatts/m^2,SoftwareType,DateUTC
2013-06-03 00:02:00,51.0,45.0,-100.00,ESE,121,3.0,7.0,80,0.00,,,0.00,1.000000,,2013-06-03 06:02:00,
2013-06-03 00:12:00,51.0,45.0,-100.00,ESE,121,3.0,7.0,80,0.00,,,0.00,1.000000,,2013-06-03 06:12:00,
2013-06-03 00:22:00,51.0,45.0,-100.00,ESE,121,3.0,7.0,80,0.00,,,0.00,1.000000,,2013-06-03 06:22:00,
2013-06-03 00:42:00,52.0,44.0,-100.00,ESE,117,5.0,11.0,74,0.00,,,0.00,1.000000,,2013-06-03 06:42:00,
2013-06-03 00:52:00,52.0,44.0,-100.00,ESE,117,5.0,11.0,74,0.00,,,0.00,1.000000,,2013-06-03 06:52:00,
2013-06-03 01:02:00,52.0,44.0,-100.00,ESE,117,5.0,11.0,74,0.00,,,0.00,1.000000,,2013-06-03 07:02:00,
2013-06-03 01:12:00,52.0,44.0,-100.00,ESE,117,5.0,11.0,74,0.00,,,0.00,1.000000,,2013-06-03 07:12:00,
2013-06-03 01:22:00,52.0,44.0,-100.00,ESE,117,5.0,11.0,74,0.00,,,0.00,1.000000,,2013-06-03 07:22:00,
2013-06-03 01:42:00,51.0,43.0,-100.00,ESE,118,4.0,10.0,75,0.00,,,0.00,1.000000,,2013-06-03 07:42:00,
2013-06-03 01:52:00,51.0,43.0,-100.00,ESE,118,4.0,10.0,75,0.00,,,0.00,1.000000,,2013-06-03 07:52:00,
2013-06-03 02:02:00,51.0,43.0,-100.00,ESE,118,4.0,10.0,75,0.00,,,0.00,1.000000,,2013-06-03 08:02:00,
2013-06-03 02:12:00,51.0,43.0,-100.00,ESE,118,4.0,10.0,75,0.00,,,0.00,1.000000,,2013-06-03 08:12:00,
2013-06-03 02:22:00,51.0,43.0,-100.00,ESE,118,4.0,10.0,75,0.00,,,0.00,1.000000,,2013-06-03 08:22:00,
2013-06-03 02:42:00,49.0,43.0,-100.00,ESE,104,3.0,10.0,79,0.00,,,0.00,1.000000,,2013-06-03 08:42:00,
2013-06-03 02:52:00,49.0,43.0,-100.00,ESE,104,3.0,10.0,79,0.00,,,0.00,1.000000,,2013-06-03 08:52:00,
2013-06-03 03:02:00,49.0,43.0,-100.00,ESE,104,3.0,10.0,79,0.00,,,0.00,1.000000,,2013-06-03 09:02:00,
2013-06-03 03:12:00,49.0,43.0,-100.00,ESE,104,3.0,10.0,79,0.00,,,0.00,1.000000,,2013-06-03 09:12:00,
2013-06-03 03:22:00,49.0,43.0,-100.00,ESE,104,3.0,10.0,79,0.00,,,0.00,1.000000,,2013-06-03 09:22:00,
2013-06-03 03:43:00,49.0,43.0,-100.00,NE,52,2.0,8.0,79,0.00,,,0.00,1.000000,,2013-06-03 09:43:00,
2013-06-03 03:53:00,49.0,43.0,-100.00,NE,52,2.0,8.0,79,0.00,,,0.00,1.000000,,2013-06-03 09:53:00,
2013-06-03 04:03:00,49.0,43.0,-100.00,NE,52,2.0,8.0,79,0.00,,,0.00,1.000000,,2013-06-03 10:03:00,
2013-06-03 04:12:00,49.0,43.0,-100.00,NE,52,2.0,8.0,79,0.00,,,0.00,1.000000,,2013-06-03 10:12:00,
2013-06-03 04:22:00,49.0,43.0,-100.00,NE,52,2.0,8.0,79,0.00,,,0.00,1.000000,,2013-06-03 10:22:00,
2013-06-03 04:42:00,49.0,42.0,-100.00,North,352,2.0,4.0,78,0.00,,,0.00,1.000000,,2013-06-03 10:42:00,
2013-06-03 04:52:00,49.0,42.0,-100.00,North,352,2.0,4.0,78,0.00,,,0.00,1.000000,,2013-06-03 10:52:00,
2013-06-03 05:02:00,49.0,42.0,-100.00,North,352,2.0,4.0,78,0.00,,,0.00,1.000000,,2013-06-03 11:02:00,
2013-06-03 05:12:00,49.0,42.0,-100.00,North,352,2.0,4.0,78,0.00,,,0.00,1.000000,,2013-06-03 11:12:00,
2013-06-03 05:22:00,49.0,42.0,-100.00,North,352,2.0,4.0,78,0.00,,,0.00,1.000000,,2013-06-03 11:22:00,
2013-06-03 05:42:00,49.0,41.0,-100.00,NNW,336,2.0,4.0,74,0.00,,,0.00,1.000000,,2013-06-03 11:42:00,
2013-06-03 05:52:00,49.0,41.0,-100.00,NNW,336,2.0,4.0,74,0.00,,,0.00,1.000000,,2013-06-03 11:52:00,
2013-06-03 06:02:00,49.0,41.0,-100.00,NNW,336,2.0,4.0,74,0.00,,,0.00,1.000000,,2013-06-03 12:02:00,
2013-06-03 06:12:00,49.0,41.0,-100.00,NNW,336,2.0,4.0,74,0.00,,,0.00,1.000000,,2013-06-03 12:12:00,
2013-06-03 06:22:00,49.0,41.0,-100.00,NNW,336,2.0,4.0,74,0.00,,,0.00,1.000000,,2013-06-03 12:22:00,
2013-06-03 06:42:00,50.0,41.0,-100.00,North,350,3.0,4.0,72,0.00,,,0.00,21.000000,,2013-06-03 12:42:00,
2013-06-03 06:52:00,50.0,41.0,-100.00,North,350,3.0,4.0,72,0.00,,,0.00,21.000000,,2013-06-03 12:52:00,
2013-06-03 07:02:00,50.0,41.0,-100.00,North,350,3.0,4.0,72,0.00,,,0.00,21.000000,,2013-06-03 13:02:00,
2013-06-03 07:12:00,50.0,41.0,-100.00,North,350,3.0,4.0,72,0.00,,,0.00,21.000000,,2013-06-03 13:12:00,
2013-06-03 07:22:00,50.0,41.0,-100.00,North,350,3.0,4.0,72,0.00,,,0.00,21.000000,,2013-06-03 13:22:00,
2013-06-03 07:43:00,56.0,43.0,-100.00,WNW,293,3.0,7.0,62,0.00,,,0.00,107.000000,,2013-06-03 13:43:00,
2013-06-03 07:53:00,56.0,43.0,-100.00,WNW,293,3.0,7.0,62,0.00,,,0.00,107.000000,,2013-06-03 13:53:00,
2013-06-03 08:02:00,56.0,43.0,-100.00,WNW,293,3.0,7.0,62,0.00,,,0.00,107.000000,,2013-06-03 14:02:00,
2013-06-03 08:12:00,56.0,43.0,-100.00,WNW,293,3.0,7.0,62,0.00,,,0.00,107.000000,,2013-06-03 14:12:00,
2013-06-03 08:22:00,56.0,43.0,-100.00,WNW,293,3.0,7.0,62,0.00,,,0.00,107.000000,,2013-06-03 14:22:00,
2013-06-03 08:42:00,65.0,41.0,-100.00,WSW,241,3.0,9.0,42,0.00,,,0.00,441.000000,,2013-06-03 14:42:00,
2013-06-03 08:52:00,65.0,41.0,-100.00,WSW,241,3.0,9.0,42,0.00,,,0.00,441.000000,,2013-06-03 14:52:00,
2013-06-03 09:02:00,65.0,41.0,-100.00,WSW,241,3.0,9.0,42,0.00,,,0.00,441.000000,,2013-06-03 15:02:00,
2013-06-03 09:12:00,65.0,41.0,-100.00,WSW,241,3.0,9.0,42,0.00,,,0.00,441.000000,,2013-06-03 15:12:00,
2013-06-03 09:22:00,65.0,41.0,-100.00,WSW,241,3.0,9.0,42,0.00,,,0.00,441.000000,,2013-06-03 15:22:00,
2013-06-03 09:43:00,70.0,41.0,-100.00,West,265,4.0,14.0,35,0.00,,,0.00,522.000000,,2013-06-03 15:43:00,
2013-06-03 09:53:00,70.0,41.0,-100.00,West,265,4.0,14.0,35,0.00,,,0.00,522.000000,,2013-06-03 15:53:00,
2013-06-03 10:03:00,70.0,41.0,-100.00,West,265,4.0,14.0,35,0.00,,,0.00,522.000000,,2013-06-03 16:03:00,
2013-06-03 10:13:00,70.0,41.0,-100.00,West,265,4.0,14.0,35,0.00,,,0.00,522.000000,,2013-06-03 16:13:00,
2013-06-03 10:23:00,70.0,41.0,-100.00,West,265,4.0,14.0,35,0.00,,,0.00,522.000000,,2013-06-03 16:23:00,
2013-06-03 10:42:00,71.0,45.0,-100.00,SW,214,4.0,11.0,40,0.00,,,0.00,764.000000,,2013-06-03 16:42:00,
2013-06-03 10:53:00,71.0,45.0,-100.00,SW,214,4.0,11.0,40,0.00,,,0.00,764.000000,,2013-06-03 16:53:00,
2013-06-03 11:02:00,71.0,45.0,-100.00,SW,214,4.0,11.0,40,0.00,,,0.00,764.000000,,2013-06-03 17:02:00,
2013-06-03 11:12:00,71.0,45.0,-100.00,SW,214,4.0,11.0,40,0.00,,,0.00,764.000000,,2013-06-03 17:12:00,
2013-06-03 11:22:00,71.0,45.0,-100.00,SW,214,4.0,11.0,40,0.00,,,0.00,764.000000,,2013-06-03 17:22:00,
2013-06-03 11:42:00,72.0,49.0,-100.00,WSW,238,4.0,11.0,44,0.00,,,0.00,897.000000,,2013-06-03 17:42:00,
2013-06-03 11:52:00,72.0,49.0,-100.00,WSW,238,4.0,11.0,44,0.00,,,0.00,897.000000,,2013-06-03 17:52:00,
2013-06-03 12:02:00,72.0,49.0,-100.00,WSW,238,4.0,11.0,44,0.00,,,0.00,897.000000,,2013-06-03 18:02:00,
2013-06-03 12:12:00,72.0,49.0,-100.00,WSW,238,4.0,11.0,44,0.00,,,0.00,897.000000,,2013-06-03 18:12:00,
2013-06-03 12:22:00,72.0,49.0,-100.00,WSW,238,4.0,11.0,44,0.00,,,0.00,897.000000,,2013-06-03 18:22:00,
2013-06-03 12:43:00,67.0,44.0,-100.00,WSW,256,5.0,15.0,43,0.00,,,0.00,737.000000,,2013-06-03 18:43:00,
2013-06-03 12:53:00,67.0,44.0,-100.00,WSW,256,5.0,15.0,43,0.00,,,0.00,737.000000,,2013-06-03 18:53:00,
2013-06-03 13:03:00,67.0,44.0,-100.00,WSW,256,5.0,15.0,43,0.00,,,0.00,737.000000,,2013-06-03 19:03:00,
2013-06-03 13:12:00,67.0,44.0,-100.00,WSW,256,5.0,15.0,43,0.00,,,0.00,737.000000,,2013-06-03 19:12:00,
2013-06-03 13:22:00,67.0,44.0,-100.00,WSW,256,5.0,15.0,43,0.00,,,0.00,737.000000,,2013-06-03 19:22:00,
2013-06-03 13:42:00,69.0,38.0,-100.00,SSW,210,6.0,16.0,32,0.00,,,0.00,1015.000000,,2013-06-03 19:42:00,
2013-06-03 13:53:00,69.0,38.0,-100.00,SSW,210,6.0,16.0,32,0.00,,,0.00,1015.000000,,2013-06-03 19:53:00,
2013-06-03 14:02:00,69.0,38.0,-100.00,SSW,210,6.0,16.0,32,0.00,,,0.00,1015.000000,,2013-06-03 20:02:00,
2013-06-03 14:12:00,69.0,38.0,-100.00,SSW,210,6.0,16.0,32,0.00,,,0.00,1015.000000,,2013-06-03 20:12:00,
2013-06-03 14:22:00,69.0,38.0,-100.00,SSW,210,6.0,16.0,32,0.00,,,0.00,1015.000000,,2013-06-03 20:22:00,
2013-06-03 14:43:00,68.0,33.0,-100.00,SW,222,8.0,20.0,27,0.00,,,0.00,1014.000000,,2013-06-03 20:43:00,
2013-06-03 14:52:00,68.0,33.0,-100.00,SW,222,8.0,20.0,27,0.00,,,0.00,1014.000000,,2013-06-03 20:52:00,
2013-06-03 15:02:00,68.0,33.0,-100.00,SW,222,8.0,20.0,27,0.00,,,0.00,1014.000000,,2013-06-03 21:02:00,
2013-06-03 15:12:00,68.0,33.0,-100.00,SW,222,8.0,20.0,27,0.00,,,0.00,1014.000000,,2013-06-03 21:12:00,
2013-06-03 15:22:00,68.0,33.0,-100.00,SW,222,8.0,20.0,27,0.00,,,0.00,1014.000000,,2013-06-03 21:22:00,
2013-06-03 15:43:00,69.0,35.0,-100.00,SW,222,5.0,13.0,29,0.00,,,0.00,942.000000,,2013-06-03 21:43:00,
2013-06-03 15:53:00,69.0,35.0,-100.00,SW,222,5.0,13.0,29,0.00,,,0.00,942.000000,,2013-06-03 21:53:00,
2013-06-03 16:03:00,69.0,35.0,-100.00,SW,222,5.0,13.0,29,0.00,,,0.00,942.000000,,2013-06-03 22:03:00,
2013-06-03 16:12:00,69.0,35.0,-100.00,SW,222,5.0,13.0,29,0.00,,,0.00,942.000000,,2013-06-03 22:12:00,
2013-06-03 16:22:00,69.0,35.0,-100.00,SW,222,5.0,13.0,29,0.00,,,0.00,942.000000,,2013-06-03 22:22:00,
2013-06-03 16:42:00,68.0,35.0,-100.00,WSW,252,5.0,13.0,30,0.00,,,0.00,704.000000,,2013-06-03 22:42:00,
2013-06-03 16:53:00,68.0,35.0,-100.00,WSW,252,5.0,13.0,30,0.00,,,0.00,704.000000,,2013-06-03 22:53:00,
2013-06-03 17:02:00,68.0,35.0,-100.00,WSW,252,5.0,13.0,30,0.00,,,0.00,704.000000,,2013-06-03 23:02:00,
2013-06-03 17:12:00,68.0,35.0,-100.00,WSW,252,5.0,13.0,30,0.00,,,0.00,704.000000,,2013-06-03 23:12:00,
2013-06-03 17:22:00,68.0,35.0,-100.00,WSW,252,5.0,13.0,30,0.00,,,0.00,704.000000,,2013-06-03 23:22:00,
2013-06-03 17:42:00,67.0,35.0,-100.00,South,171,4.0,14.0,30,0.00,,,0.00,637.000000,,2013-06-03 23:42:00,
2013-06-03 17:52:00,67.0,35.0,-100.00,South,171,4.0,14.0,30,0.00,,,0.00,637.000000,,2013-06-03 23:52:00,
2013-06-03 18:02:00,67.0,35.0,-100.00,South,171,4.0,14.0,30,0.00,,,0.00,637.000000,,2013-06-04 00:02:00,
2013-06-03 18:12:00,67.0,35.0,-100.00,South,171,4.0,14.0,30,0.00,,,0.00,637.000000,,2013-06-04 00:12:00,
2013-06-03 18:22:00,67.0,35.0,-100.00,South,171,4.0,14.0,30,0.00,,,0.00,637.000000,,2013-06-04 00:22:00,
2013-06-03 18:42:00,63.0,32.0,-100.00,WSW,256,4.0,12.0,31,0.00,,,0.00,374.000000,,2013-06-04 00:42:00,
2013-06-03 18:52:00,63.0,32.0,-100.00,WSW,256,4.0,12.0,31,0.00,,,0.00,374.000000,,2013-06-04 00:52:00,
2013-06-03 19:02:00,63.0,32.0,-100.00,WSW,256,4.0,12.0,31,0.00,,,0.00,374.000000,,2013-06-04 01:02:00,
2013-06-03 19:12:00,63.0,32.0,-100.00,WSW,256,4.0,12.0,31,0.00,,,0.00,374.000000,,2013-06-04 01:12:00,
2013-06-03 19:22:00,63.0,32.0,-100.00,WSW,256,4.0,12.0,31,0.00,,,0.00,374.000000,,2013-06-04 01:22:00,
2013-06-03 19:42:00,59.0,31.0,-100.00,SSW,210,3.0,8.0,34,0.00,,,0.00,120.000000,,2013-06-04 01:42:00,
2013-06-03 19:53:00,59.0,31.0,-100.00,SSW,210,3.0,8.0,34,0.00,,,0.00,120.000000,,2013-06-04 01:53:00,
2013-06-03 20:02:00,59.0,31.0,-100.00,SSW,210,3.0,8.0,34,0.00,,,0.00,120.000000,,2013-06-04 02:02:00,
2013-06-03 20:12:00,59.0,31.0,-100.00,SSW,210,3.0,8.0,34,0.00,,,0.00,120.000000,,2013-06-04 02:12:00,
2013-06-03 20:22:00,59.0,31.0,-100.00,SSW,210,3.0,8.0,34,0.00,,,0.00,120.000000,,2013-06-04 02:22:00,
2013-06-03 20:42:00,54.0,41.0,-100.00,ESE,105,4.0,10.0,61,0.00,,,0.00,27.000000,,2013-06-04 02:42:00,
2013-06-03 20:52:00,54.0,41.0,-100.00,ESE,105,4.0,10.0,61,0.00,,,0.00,27.000000,,2013-06-04 02:52:00,
2013-06-03 21:02:00,54.0,41.0,-100.00,ESE,105,4.0,10.0,61,0.00,,,0.00,27.000000,,2013-06-04 03:02:00,
2013-06-03 21:12:00,54.0,41.0,-100.00,ESE,105,4.0,10.0,61,0.00,,,0.00,27.000000,,2013-06-04 03:12:00,
2013-06-03 21:22:00,54.0,41.0,-100.00,ESE,105,4.0,10.0,61,0.00,,,0.00,27.000000,,2013-06-04 03:22:00,
2013-06-03 21:43:00,51.0,38.0,-100.00,ENE,72,3.0,10.0,61,0.00,,,0.00,2.000000,,2013-06-04 03:43:00,
2013-06-03 21:54:00,51.0,38.0,-100.00,ENE,72,3.0,10.0,61,0.00,,,0.00,2.000000,,2013-06-04 03:54:00,
2013-06-03 22:03:00,51.0,38.0,-100.00,ENE,72,3.0,10.0,61,0.00,,,0.00,2.000000,,2013-06-04 04:03:00,
2013-06-03 22:13:00,51.0,38.0,-100.00,ENE,72,3.0,10.0,61,0.00,,,0.00,2.000000,,2013-06-04 04:13:00,
2013-06-03 22:23:00,51.0,38.0,-100.00,ENE,72,3.0,10.0,61,0.00,,,0.00,2.000000,,2013-06-04 04:23:00,
2013-06-03 22:42:00,48.0,38.0,-100.00,North,6,1.0,3.0,68,0.00,,,0.00,1.000000,,2013-06-04 04:42:00,
2013-06-03 22:53:00,48.0,38.0,-100.00,North,6,1.0,3.0,68,0.00,,,0.00,1.000000,,2013-06-04 04:53:00,
2013-06-03 23:02:00,48.0,38.0,-100.00,North,6,1.0,3.0,68,0.00,,,0.00,1.000000,,2013-06-04 05:02:00,
2013-06-03 23:12:00,48.0,38.0,-100.00,North,6,1.0,3.0,68,0.00,,,0.00,1.000000,,2013-06-04 05:12:00,
2013-06-03 23:22:00,48.0,38.0,-100.00,North,6,1.0,3.0,68,0.00,,,0.00,1.000000,,2013-06-04 05:22:00,
2013-06-03 23:42:00,47.0,38.0,-100.00,SSW,213,1.0,6.0,71,0.00,,,0.00,1.000000,,2013-06-04 05:42:00,
2013-06-03 23:52:00,47.0,38.0,-100.00,SSW,213,1.0,6.0,71,0.00,,,0.00,1.000000,,2013-06-04 05:52:00,